Location: Unspecified
(0.0000°N, 0.0000°E)
Time: 13:48:27
(UTC+01:00)

Ariane H10 - Visible Passes

Search period start: 16 January 2017 00:00
Search period end: 26 January 2017 00:00
Orbit: 242 x 23986 km, 3.7° (Epoch: 15 January)

Date Brightness Start Highest point End Pass type
(mag) Time Alt. Az. Time Alt. Az. Time Alt. Az.
16 Jan 5.7 19:08:12 10° W 19:15:26 80° N 00:10:04 10° E visible
17 Jan 8.2 02:50:24 10° W 05:11:19 38° W 08:39:25 10° E visible
17 Jan 8.2 23:10:01 10° W 00:18:43 88° S 05:16:36 10° E visible
18 Jan 6.3 19:49:04 10° W 19:58:53 84° N 01:23:24 10° E visible
19 Jan 7.6 03:47:00 10° W 05:51:47 27° W 09:20:19 10° E visible
19 Jan 8.4 23:52:45 10° W 02:23:04 82° WSW 05:59:14 10° E visible
20 Jan 6.9 20:29:34 10° W 20:43:03 87° N 02:18:46 10° E visible
21 Jan 6.9 05:01:10 10° W 06:31:08 16° W 10:00:28 10° E visible
22 Jan 8.6 00:35:54 10° W 03:11:47 70° WSW 06:40:36 10° E visible
22 Jan 7.5 21:09:43 10° W 21:28:44 89° N 03:07:22 10° E visible
24 Jan 8.8 01:19:52 10° W 03:54:02 58° W 07:20:55 10° E visible
24 Jan 8.0 21:49:38 10° W 22:17:31 89° S 03:52:14 10° E visible
25 Jan 5.3 18:30:06 10° W 18:36:04 79° N 20:00:15 10° E visible
